Manhattan, KS

10:24 AM CDT on September 17, 2019 (GMT -0500)
Manhattan Regional

Weather History for KMHK - August, 2019

Change the Weather History Date:

Sunday, August 25, 2019

  Actual Average Record
Temperature  
Mean Temperature 73 °F 76 °F  
Max Temperature 79 °F 88 °F 105 °F (2003)
Min Temperature 67 °F 63 °F 51 °F (2015)
Degree Days  
Heating Degree Days 0 0  
Month to date heating degree days 0 0  
Since 1 June heating degree days 4 12  
Since 1 July heating degree days 0 1  
Cooling Degree Days 8 11  
Month to date cooling degree days 345 319  
Year to date cooling degree days 1184 1125  
Since 1 June cooling degree days 1079 1025  
Growing Degree Days 22 (Base 50)    
Moisture  
Dew Point 65 °F    
Average Humidity 78    
Maximum Humidity 93    
Minimum Humidity 62    
Precipitation  
Precipitation 1.15 in 0.16 in 2.14 in (2005)
Month to date precipitation 7.59 3.31  
Year to date precipitation 31.80 23.57  
Sea Level Pressure  
Sea Level Pressure 29.86 in    
Wind  
Wind Speed 6 mph (SE)    
Max Wind Speed 25 mph    
Max Gust Speed 32 mph    
Visibility 8 miles    
Events Rain , Thunderstorm    
T = Trace of Precipitation, MM = Missing Value Source: NWS Daily Summary

Daily Weather History Graph

Daily Weather History Graph

Search for Another Location

Airport or City:

Astronomy

Aug. 25, 2019 Rise Set
Actual Time 6:48 AM CDT 8:08 PM CDT
Civil Twilight 6:20 AM CDT 8:35 PM CDT
Nautical Twilight 5:47 AM CDT 9:09 PM CDT
Astronomical Twilight 5:12 AM CDT 9:44 PM CDT
Moon 1:25 AM CDT (8/25) 4:28 PM CDT (8/25)
Length of Visible Light 14h 14m
Length of Day
13h 19m
Waning Crescent, 29% of the Moon is Illuminated
Aug 25
Waning Crescent
Aug 30
New
Sep 5
First Quarter
Sep 13
Full
Sep 21
Last Quarter

Hourly Weather History & Observations

Time (CDT) Temp. Dew Point Humidity Pressure Visibility Wind Dir Wind Speed Gust Speed Precip Events Conditions
12:02 AM 69.1 °F 66.0 °F 90% 30.02 in 10.0 mi WNW 5.8 mph 17.3 mph 0.02 in Rain , Thunderstorm Light Thunderstorms and Rain
12:24 AM 68.0 °F 66.0 °F 93% 30.01 in 4.0 mi East 5.8 mph - 0.20 in Rain , Thunderstorm Heavy Thunderstorms and Rain
12:52 AM 68.0 °F 64.9 °F 90% 29.94 in 8.0 mi ESE 12.7 mph 20.7 mph 0.34 in Rain , Thunderstorm Thunderstorms and Rain
1:10 AM 66.9 °F 64.9 °F 93% 29.90 in 10.0 mi East 21.9 mph 31.1 mph 0.02 in Rain , Thunderstorm Light Rain
1:52 AM 66.9 °F 64.9 °F 93% 29.88 in 10.0 mi ESE 12.7 mph 21.9 mph 0.04 in   Partly Cloudy
2:44 AM 68.0 °F 64.9 °F 90% 29.89 in 8.0 mi ESE 9.2 mph - 0.03 in Rain , Thunderstorm Rain
2:52 AM 68.0 °F 64.9 °F 90% 29.86 in 10.0 mi ESE 9.2 mph - 0.03 in Rain , Thunderstorm Light Rain
3:11 AM 68.0 °F 64.9 °F 90% 29.88 in 10.0 mi SE 5.8 mph 17.3 mph 0.01 in Rain , Thunderstorm Light Rain
3:38 AM 66.9 °F 64.9 °F 93% 29.90 in 5.0 mi SSW 9.2 mph - 0.12 in Rain , Thunderstorm Thunderstorms and Rain
3:42 AM 66.9 °F 64.9 °F 93% 29.90 in 2.5 mi SSW 9.2 mph - 0.28 in Rain , Thunderstorm Heavy Thunderstorms and Rain
3:45 AM 66.9 °F 64.9 °F 93% 29.90 in 1.8 mi South 8.1 mph - 0.37 in Rain , Thunderstorm Heavy Thunderstorms and Rain
3:52 AM 66.9 °F 64.9 °F 93% 29.87 in 1.5 mi South 8.1 mph - 0.52 in Rain , Thunderstorm Heavy Thunderstorms and Rain
3:58 AM 66.9 °F 64.9 °F 93% 29.90 in 2.5 mi SSE 9.2 mph - 0.05 in Rain , Thunderstorm Heavy Thunderstorms and Rain
4:19 AM 68.0 °F 64.9 °F 90% 29.89 in 4.0 mi South 9.2 mph - 0.28 in Rain , Thunderstorm Heavy Thunderstorms and Rain
4:35 AM 66.9 °F 64.9 °F 93% 29.87 in 5.0 mi Variable 3.5 mph - 0.36 in Rain , Thunderstorm Heavy Thunderstorms and Rain
4:52 AM 66.9 °F 64.9 °F 93% 29.82 in 6.0 mi East 11.5 mph - 0.42 in Rain , Thunderstorm Heavy Rain
5:06 AM 66.9 °F 64.9 °F 93% 29.82 in 7.0 mi East 12.7 mph - 0.04 in Rain Heavy Rain
5:32 AM 66.9 °F 66.0 °F 97% 29.85 in 8.0 mi Calm Calm - 0.10 in Rain Rain
5:52 AM 66.9 °F 64.9 °F 93% 29.83 in 10.0 mi NE 5.8 mph - 0.12 in Rain Light Rain
6:52 AM 66.9 °F 66.0 °F 97% 29.85 in 10.0 mi Calm Calm - 0.00 in   Overcast
7:52 AM 68.0 °F 66.0 °F 93% 29.84 in 10.0 mi SSE 3.5 mph - 0.02 in Rain Light Rain
8:45 AM 68.0 °F 64.9 °F 90% 29.88 in 10.0 mi South 4.6 mph - 0.00 in   Overcast
8:52 AM 68.0 °F 64.9 °F 90% 29.86 in 10.0 mi South 4.6 mph - 0.00 in   Overcast
9:00 AM 68.0 °F 64.9 °F 90% 29.87 in 10.0 mi SSE 4.6 mph - N/A   Overcast
9:52 AM 68.0 °F 64.9 °F 90% 29.87 in 10.0 mi SSE 4.6 mph - N/A   Overcast
10:02 AM 69.1 °F 66.0 °F 90% 29.88 in 10.0 mi ESE 4.6 mph - N/A   Overcast
10:22 AM 69.1 °F 66.0 °F 90% 29.89 in 10.0 mi South 5.8 mph - N/A   Overcast
10:52 AM 70.0 °F 64.9 °F 84% 29.87 in 10.0 mi South 5.8 mph - N/A   Overcast
11:50 AM 71.6 °F 64.4 °F 78% 29.89 in 10.0 mi South 5.8 mph - N/A   Mostly Cloudy
11:52 AM 72.0 °F 64.9 °F 78% 29.86 in 10.0 mi South 5.8 mph - N/A   Mostly Cloudy
12:07 PM 73.0 °F 64.9 °F 76% 29.88 in 10.0 mi SW 5.8 mph - N/A   Mostly Cloudy
12:26 PM 73.0 °F 64.9 °F 76% 29.88 in 10.0 mi SW 5.8 mph - N/A   Overcast
12:52 PM 73.9 °F 64.9 °F 73% 29.84 in 10.0 mi South 4.6 mph - N/A   Overcast
1:52 PM 75.9 °F 64.0 °F 67% 29.83 in 10.0 mi SE 3.5 mph - N/A   Overcast
2:52 PM 77.0 °F 64.0 °F 64% 29.81 in 10.0 mi SSW 3.5 mph - N/A   Mostly Cloudy
3:52 PM 77.0 °F 64.9 °F 66% 29.79 in 10.0 mi Calm Calm - N/A   Partly Cloudy
4:52 PM 79.0 °F 64.9 °F 62% 29.77 in 10.0 mi NE 3.5 mph - N/A   Overcast
5:52 PM 79.0 °F 66.0 °F 64% 29.77 in 10.0 mi East 5.8 mph - N/A   Partly Cloudy
6:52 PM 77.0 °F 66.9 °F 71% 29.78 in 10.0 mi East 6.9 mph - N/A   Mostly Cloudy
7:52 PM 75.0 °F 66.9 °F 76% 29.78 in 10.0 mi East 6.9 mph - N/A   Mostly Cloudy
8:52 PM 73.0 °F 66.9 °F 81% 29.79 in 10.0 mi East 5.8 mph - N/A   Overcast
9:52 PM 72.0 °F 66.9 °F 84% 29.81 in 10.0 mi East 6.9 mph - N/A   Overcast
10:52 PM 71.1 °F 66.9 °F 87% 29.81 in 10.0 mi East 6.9 mph - N/A   Overcast
11:37 PM 70.0 °F 66.9 °F 90% 29.82 in 10.0 mi East 8.1 mph - N/A   Mostly Cloudy
11:45 PM 70.0 °F 66.9 °F 90% 29.81 in 10.0 mi East 6.9 mph - N/A   Mostly Cloudy